Tracking 25723 objects as of 27-Jun-2022
HD Live streaming from Space Station
objects crossing your sky now

DELTA 1 DEB

Track DELTA 1 DEB now!
10-day predictions


NORAD ID: 37662
Int'l Code: 1978-026JZ
Perigee: 828.8 km
Apogee: 878.1 km
Inclination: 99.0 °
Period: 101.9 minutes
Semi major axis: 7224 km
RCS: 0.0109 m2 (small)
Launch date: March 5, 1978
Source: United States (US)
Launch site: AIR FORCE WESTERN TEST RANGE (AFWTR)

Note: This is SATELLITE DEBRIS
aabbcc
Your satellite tracking list
Your tracking list is empty




NASA's NSSDC Master Catalog

Two Line Element Set (TLE):
1 37662U 78026JZ  22178.18244879  .00000266  00000-0  16366-3 0  9999
2 37662  98.9804 162.6016 0034064 245.2539 114.5086 14.13822641 30508
Source of the keplerian elements: AFSPC